RH
41 40 39 37 36 33 30 28 28 28 27 27 25 24 24 23 22 21 21 21 19 18 17 16 17 17 17 18 17 17 17 16 16 15 15 16 16 17 18 18 19 19 19 19 19 20 20 21 22 22 22 21 20 20 20 20 21 21 23 25 27 28 27 25 25 24 24 24 23 23 23 23 22 22
46 45 43 41 39 35 32 29 28 26 25 26 26 27 28 27 25 23 21 20 18 17 18 17 16 18 19 19 18 18 18 17 17 17 17 18 18 19 20 21 21 22 22 22 22 23 24 25 26 26 26 25 24 24 23 24 25 27 29 30 30 30 29 29 29 28 28 27 26 26 24 23 21 20
51 50 49 47 44 39 34 30 29 28 26 27 28 29 30 30 28 27 24 22 20 18 19 19 18 19 19 19 19 19 19 19 19 19 19 19 20 21 23 23 24 25 25 25 25 27 29 30 31 31 32 31 31 30 30 31 32 33 33 33 33 33 32 32 31 30 28 26 24 22 19 18 17 16
54 54 54 54 53 49 45 41 38 35 32 32 33 31 32 32 30 29 28 25 23 22 22 21 21 21 21 21 20 19 21 22 21 21 21 21 22 24 25 26 26 28 29 30 30 31 32 33 35 36 37 37 37 36 36 36 36 36 36 36 35 34 32 31 29 26 23 20 17 15 14 14 15 15
57 57 57 61 62 58 55 54 50 46 44 43 42 38 37 37 34 32 30 28 26 24 24 23 22 23 23 22 21 20 22 22 22 23 23 23 25 26 27 28 29 31 34 35 35 36 36 37 39 40 41 40 39 39 38 38 38 37 36 35 33 32 29 26 21 18 15 14 13 14 15 15 15 15
58 57 57 61 64 62 62 61 57 54 52 51 50 46 43 42 38 35 33 32 29 27 26 25 24 23 23 22 21 21 22 23 24 25 26 27 28 29 30 32 34 36 39 41 41 41 41 41 41 42 42 42 42 41 40 39 38 36 34 33 31 27 22 17 14 13 13 14 14 15 15 14 14 14
58 57 57 58 62 65 66 65 60 57 56 55 53 50 47 44 40 37 34 33 32 29 27 26 24 24 23 22 22 22 23 24 25 26 29 30 31 31 33 35 38 41 43 45 45 44 43 43 43 44 44 44 43 42 40 39 37 36 34 30 24 18 14 13 13 14 14 15 15 15 15 15 14 14
58 56 56 57 60 64 64 63 61 58 57 56 54 51 48 45 41 38 36 34 33 30 28 26 25 23 23 23 23 23 24 26 27 28 29 32 34 33 34 37 39 41 43 45 45 44 43 43 43 44 45 45 43 41 40 38 36 33 29 22 16 13 13 14 14 14 16 16 17 17 17 16 16 16
56 54 52 50 51 54 57 61 64 63 61 58 55 51 48 45 41 38 35 34 34 32 28 26 24 23 22 22 24 24 24 25 28 30 30 32 34 34 35 36 36 38 41 41 42 42 41 42 43 45 47 45 42 40 39 36 32 27 21 15 13 13 14 15 16 18 19 19 19 19 18 18 18 18
52 50 48 46 45 48 53 58 62 62 62 61 59 55 51 45 40 37 34 31 31 30 28 27 26 25 23 22 24 25 27 28 29 32 34 33 32 34 39 40 36 35 37 38 41 44 43 42 43 45 45 43 40 39 38 34 28 22 17 14 14 15 17 18 20 21 21 22 22 22 21 21 21 21
52 46 44 45 46 48 51 55 59 61 63 64 63 60 54 48 41 37 33 30 27 26 24 24 24 24 27 28 27 28 31 32 32 33 35 36 34 33 38 43 40 36 38 41 46 48 46 45 45 46 46 42 40 39 36 32 25 19 17 16 16 17 19 20 22 23 24 25 25 24 24 25 25 25
51 44 42 44 47 48 49 53 57 61 65 66 65 62 56 50 45 40 36 32 29 26 26 26 27 30 38 42 42 43 44 43 41 38 36 39 40 36 37 42 43 42 44 47 50 51 48 46 46 45 43 41 39 36 33 28 23 20 20 20 22 24 25 28 29 29 29 29 28 29 29 28 28 27
53 43 40 43 46 48 49 52 53 55 57 60 63 64 61 57 50 44 39 34 30 28 28 31 32 35 44 54 60 60 56 56 58 53 45 42 43 40 40 43 46 50 51 48 46 47 45 43 42 40 39 39 38 35 33 29 25 26 28 30 33 35 35 35 34 32 30 28 28 29 28 29 30 32
59 44 38 40 45 47 49 48 46 46 47 52 58 63 65 63 57 51 44 36 30 27 27 30 34 37 44 57 68 66 63 70 79 75 62 53 49 45 43 45 48 53 56 52 48 46 42 40 40 38 38 39 39 40 41 37 33 33 35 37 37 37 35 33 30 28 27 27 29 30 31 34 36 38
61 46 39 39 40 44 47 44 44 48 51 54 61 67 69 66 60 53 46 40 34 29 29 33 38 43 45 54 66 68 66 78 89 82 67 58 56 51 46 45 46 49 53 53 51 49 44 41 41 40 40 40 41 42 43 41 39 37 37 37 36 35 33 31 30 30 32 34 35 36 38 39 39 39
63 54 53 58 57 49 45 44 48 55 59 62 66 71 73 69 64 59 50 44 40 36 35 38 43 49 50 53 62 61 58 70 80 74 65 61 58 54 49 47 44 41 43 44 46 47 45 43 43 41 39 37 38 41 46 50 49 47 45 44 42 41 40 38 38 40 41 42 41 42 44 44 43 43
70 68 67 79 84 76 68 66 64 58 58 67 74 77 78 74 68 65 57 50 48 45 45 47 51 56 57 57 60 57 55 64 71 68 67 66 59 52 50 50 45 39 40 44 46 44 40 38 37 36 35 35 37 42 50 58 61 59 56 53 49 47 46 45 45 46 45 45 46 48 50 49 49 46
72 80 75 74 78 84 92 93 86 70 63 73 80 81 84 83 75 69 60 55 58 58 57 59 62 65 65 64 65 64 62 64 62 59 60 63 60 57 60 65 61 51 49 51 50 45 38 35 36 38 37 36 37 42 47 56 61 59 57 55 53 51 49 48 48 48 49 51 53 54 55 54 49 41
62 69 68 61 58 75 96 100 94 84 80 86 87 81 83 84 81 78 71 64 63 62 61 65 70 73 72 69 68 69 67 65 61 58 58 59 62 67 72 76 74 66 59 56 60 65 63 60 59 57 50 46 49 53 57 61 64 60 58 57 55 54 53 53 54 56 59 61 61 61 60 56 45 34
58 53 52 53 53 69 92 97 91 86 85 91 92 86 84 85 82 79 78 75 71 67 67 69 72 76 76 73 72 71 70 69 65 64 62 60 63 71 74 71 68 68 64 64 75 85 87 89 90 81 69 64 65 66 65 63 61 60 61 61 60 61 62 61 64 68 69 68 67 66 63 56 44 33
57 49 49 51 50 66 90 100 96 86 79 82 86 83 81 83 77 72 75 79 77 73 72 70 71 75 78 78 78 76 76 76 72 70 67 63 65 71 72 66 64 70 72 73 78 83 83 88 95 92 84 78 79 77 69 61 60 63 67 69 69 72 72 71 74 75 74 72 70 68 65 58 48 38
48 47 50 54 60 77 94 98 89 74 64 70 81 80 76 78 76 71 73 79 78 73 71 72 77 83 85 87 89 89 88 85 81 77 72 68 69 70 72 74 78 83 84 77 70 73 80 86 91 95 94 89 84 78 69 67 71 75 78 80 81 83 81 79 80 79 76 73 70 69 66 60 52 41
46 47 50 59 70 76 77 72 65 62 66 75 81 77 73 78 81 76 75 82 86 83 77 77 83 88 89 92 95 96 94 88 81 78 75 74 75 77 81 87 86 85 84 78 73 78 87 89 88 90 93 90 86 82 80 81 83 85 88 88 88 92 91 86 85 83 78 73 71 69 65 58 51 40
44 44 47 54 60 60 62 64 63 66 78 87 87 83 82 84 86 84 83 86 94 98 94 90 90 91 92 96 98 98 97 93 86 82 84 88 90 93 97 98 92 84 80 79 78 79 83 88 90 92 95 97 96 96 97 94 91 90 89 87 92 101 100 93 89 84 78 74 70 63 57 52 46 40
53 59 62 63 62 61 66 72 73 73 78 85 89 90 90 87 84 83 81 82 90 99 102 100 99 99 99 100 101 100 100 98 94 92 95 100 100 100 101 100 98 96 93 91 92 91 91 93 92 91 94 99 101 102 101 99 97 94 89 87 96 101 95 87 83 78 74 72 65 57 54 52 49 49
64 67 69 71 72 71 68 67 69 70 71 72 75 77 77 77 76 76 81 88 95 99 101 101 100 100 101 101 100 101 101 100 98 98 100 102 101 101 101 100 99 100 101 100 98 95 92 89 85 87 92 98 100 100 99 99 100 99 97 96 99 99 93 86 79 72 70 67 61 61 63 61 59 61
67 67 69 74 81 84 83 78 72 69 69 69 70 69 69 70 72 73 79 89 96 98 100 101 100 99 100 100 100 100 99 97 96 98 101 102 101 101 101 101 100 99 100 98 94 91 91 89 89 93 97 99 100 100 100 101 100 100 100 98 98 100 98 90 81 79 80 76 74 77 76 72 72 72
71 70 73 77 80 83 87 87 84 84 86 87 87 86 85 85 85 85 84 87 91 94 97 101 101 100 100 100 100 99 96 94 94 96 100 101 101 101 102 102 102 100 99 98 96 96 97 96 96 98 99 100 100 99 99 100 100 100 101 100 99 101 97 91 89 91 92 89 88 89 88 85 84 82
65 66 71 79 84 85 87 89 90 92 96 98 98 98 97 97 98 98 97 96 96 97 99 101 101 101 101 101 101 100 98 96 94 92 93 96 99 101 101 101 101 100 99 100 100 100 101 100 100 100 100 100 100 100 100 100 100 100 99 98 100 100 95 90 89 89 88 88 90 93 93 89 86 83
72 75 81 88 93 95 95 96 96 97 98 100 100 100 100 101 102 101 101 100 99 98 98 97 96 97 97 96 95 97 98 98 96 94 94 97 100 101 101 100 100 100 100 99 100 100 100 99 99 99 100 100 99 99 100 99 100 100 100 101 102 100 94 89 87 85 84 85 88 90 87 82 82 81
80 83 86 88 89 91 92 92 92 93 94 95 96 95 93 91 88 86 83 81 78 77 75 74 73 73 74 73 73 74 75 74 74 74 75 79 84 89 92 94 95 97 98 99 100 101 101 102 102 101 100 100 101 101 100 100 100 100 99 100 100 98 97 96 93 88 83 80 80 77 72 71 71 70
66 68 69 68 67 67 68 68 68 69 69 69 69 66 63 60 57 55 53 51 49 47 46 46 46 45 45 45 44 43 42 39 37 36 36 37 40 43 46 49 53 57 62 66 68 71 75 78 79 76 73 73 77 80 86 95 99 99 100 104 105 103 100 96 94 91 86 78 70 62 61 63 64 68
49 48 48 47 47 46 45 45 44 44 43 42 40 38 37 36 34 32 31 29 27 26 24 24 23 23 23 23 22 21 21 19 18 17 17 16 15 15 16 17 17 18 21 23 24 25 28 30 30 28 27 26 28 31 40 55 65 71 78 86 89 88 84 82 82 79 70 61 55 57 68 79 84 88
40 39 37 35 34 32 31 29 29 28 26 24 22 20 19 18 17 16 15 13 12 11 11 11 11 11 10 10 10 11 10 10 10 10 9 9 9 9 9 9 9 10 10 10 11 11 11 12 11 11 11 12 13 11 12 17 21 22 27 38 53 66 72 71 68 62 56 59 67 77 89 99 100 95
27 25 23 21 19 18 17 17 16 15 13 11 10 10 10 9 9 9 9 9 9 9 9 9 9 9 9 8 8 8 8 8 8 8 8 8 8 9 9 9 9 9 9 9 11 12 11 10 10 9 9 8 8 8 11 16 20 23 35 56 73 78 71 66 70 77 81 87 94 97 99 98 92 84
16 14 12 11 11 10 10 9 8 8 7 8 8 8 8 8 8 8 9 9 9 9 9 9 8 8 8 8 8 7 7 7 7 7 8 8 10 15 17 12 8 9 10 10 9 9 9 12 14 15 18 23 30 40 51 60 67 75 87 96 89 72 60 65 83 97 100 100 101 99 92 84 75 65
9 8 7 7 7 7 6 7 7 7 8 8 9 10 10 9 10 9 9 9 8 8 8 8 7 7 7 7 7 7 7 8 8 9 11 14 16 20 22 17 12 12 12 11 16 25 36 46 52 55 62 72 81 88 94 98 101 102 99 89 74 66 73 87 98 102 99 96 92 83 72 63 54 43
7 7 7 7 8 8 9 9 10 10 11 11 10 10 10 9 9 8 8 7 7 7 7 7 7 7 7 7 8 9 9 10 10 10 12 13 13 14 14 15 20 24 27 39 58 75 84 90 92 93 96 99 100 99 96 92 87 80 75 73 77 87 97 100 99 95 88 79 70 62 54 47 38 30
8 9 9 9 10 11 11 12 11 11 10 10 9 9 8 8 8 7 7 7 7 7 7 7 6 7 8 8 10 10 10 12 13 14 14 15 21 29 37 44 53 56 60 75 94 101 99 99 99 98 96 92 89 84 76 68 65 65 69 80 92 97 96 89 82 74 66 60 56 52 45 37 31 27
10 11 11 12 12 12 12 11 10 9 9 8 8 8 8 8 8 7 7 7 7 7 7 7 8 9 9 9 10 11 12 13 12 13 13 15 23 40 60 79 90 90 89 97 103 98 88 84 83 81 77 74 71 69 67 69 77 83 84 85 85 83 77 70 61 55 52 51 48 43 37 33 30 26
12 12 13 12 11 10 10 9 9 9 9 9 9 9 8 8 8 8 8 8 8 9 10 10 10 10 10 13 14 14 14 16 19 26 32 33 33 41 59 80 93 96 95 98 98 89 78 72 72 74 75 71 68 69 73 79 83 85 84 80 75 70 65 58 51 49 49 47 43 39 36 34 30 28
12 12 11 10 9 9 10 10 10 10 9 9 9 8 8 8 8 8 9 10 10 12 11 11 15 21 31 43 50 49 46 48 55 66 74 75 71 71 79 87 91 92 90 89 90 88 84 82 85 90 92 86 78 75 76 76 74 71 68 61 56 56 57 55 52 51 48 45 43 41 37 35 32 28
10 10 10 9 10 10 10 10 10 9 9 9 8 7 7 8 9 11 13 13 14 15 16 22 40 59 70 77 86 89 87 87 89 93 96 97 94 94 96 97 97 97 96 95 97 99 98 97 98 98 94 86 77 70 65 61 56 53 51 50 53 58 59 56 54 51 47 44 42 37 34 32 28 21
10 11 11 10 10 10 10 9 9 8 8 8 7 7 7 9 12 15 16 14 18 23 24 30 53 81 94 95 97 99 98 98 98 98 99 101 100 100 100 100 100 101 100 100 100 98 93 89 86 84 80 73 66 61 57 53 52 56 61 65 66 64 59 54 48 42 38 35 31 28 29 27 22 25
11 11 10 10 10 10 10 9 9 8 9 9 7 7 9 12 16 18 17 18 26 33 31 27 37 59 79 88 92 96 99 100 100 99 100 100 99 100 100 99 99 99 100 99 98 97 93 86 80 77 74 69 64 62 62 64 69 73 73 69 64 60 56 49 37 27 25 25 23 25 29 24 25 47
Wind_Speed
17 17 18 18 18 18 17 17 17 16 15 15 15 15 15 14 13 12 12 13 14 15 15 15 14 14 14 13 13 12 11 11 10 9 9 8 7 7 6 6 6 6 6 7 7 7 7 7 7 7 7 8 8 9 9 10 10 10 10 11 11 12 13 14 14 15 16 17 18 19 20 21 23 24
17 18 18 18 19 19 18 17 17 16 16 16 16 16 16 16 15 13 13 15 15 15 16 16 15 14 13 14 14 12 11 10 10 9 8 8 7 7 7 7 7 8 8 8 8 8 8 8 7 7 8 8 8 9 9 10 10 11 11 12 13 14 15 16 17 18 19 21 22 23 24 25 26 27
18 18 17 17 17 18 18 18 18 18 18 17 16 17 18 17 16 15 15 16 17 16 15 16 16 15 14 14 14 13 11 10 10 9 9 8 8 8 8 9 9 9 10 10 9 9 9 8 9 9 9 9 9 9 10 11 12 13 13 14 15 16 18 19 20 22 23 25 26 26 27 27 28 29
17 17 17 17 17 18 18 19 19 19 19 18 17 18 19 18 18 17 16 17 18 17 16 16 16 15 15 15 14 13 11 11 10 10 10 10 10 10 10 11 11 11 11 11 11 10 10 10 10 10 10 10 10 11 12 13 14 15 16 17 18 20 21 23 24 26 27 28 28 28 28 29 29 30
18 18 19 19 19 20 20 20 20 21 20 19 19 19 19 19 20 19 17 18 20 18 17 17 16 15 15 15 15 14 12 12 11 11 11 12 12 12 13 13 13 13 13 13 12 12 11 11 12 12 12 12 13 14 15 15 16 18 19 20 22 23 25 26 27 28 28 28 29 29 30 31 31 32
19 20 20 21 21 21 21 21 21 21 22 21 20 20 20 20 21 20 17 18 21 20 19 18 18 17 16 16 16 15 14 13 13 12 13 13 14 15 15 15 15 15 15 14 14 13 13 13 14 14 14 15 15 16 17 19 20 21 22 24 25 26 27 27 28 28 29 30 31 31 32 33 34 35
20 20 20 20 20 20 20 21 21 22 22 22 21 21 21 21 22 20 18 19 21 21 20 20 19 18 18 17 17 17 15 15 15 15 15 15 16 17 17 17 18 17 16 16 16 16 16 16 16 16 17 17 18 19 21 22 23 24 26 27 27 28 28 29 30 31 31 32 33 34 35 36 37 38
20 20 20 20 20 20 21 21 22 23 23 22 22 23 22 22 22 21 20 20 21 22 21 21 20 20 20 19 18 18 18 17 17 18 18 18 18 19 19 20 20 20 19 18 18 18 18 18 19 19 19 20 21 22 24 25 27 28 29 29 29 30 31 32 32 33 34 35 36 36 38 39 40 41
20 20 19 20 20 20 21 21 22 23 23 23 24 24 24 23 23 21 21 20 21 22 22 22 21 21 22 21 20 20 21 20 20 20 21 20 20 20 21 22 23 22 21 21 21 21 21 21 22 22 22 23 25 26 28 29 30 31 31 32 32 33 34 35 35 36 37 38 39 40 41 42 44 46
20 20 20 20 20 20 21 21 22 23 23 24 24 24 25 24 24 23 23 22 21 21 23 23 22 22 23 23 22 22 22 23 22 22 23 23 23 22 22 24 26 24 23 24 23 23 23 24 24 25 25 27 28 30 31 32 33 33 34 35 36 36 37 38 39 40 42 43 43 44 46 47 48 50
20 21 21 21 21 21 21 21 21 22 23 23 23 24 25 24 24 24 25 25 24 23 23 24 23 23 23 25 25 24 23 23 24 25 24 24 26 25 23 25 26 25 25 25 25 25 25 26 27 28 28 30 31 33 34 35 36 36 37 38 39 40 41 42 43 45 46 47 48 49 50 51 52 53
21 22 22 22 21 21 21 20 21 21 22 23 23 24 26 25 24 25 26 25 25 25 24 24 24 23 23 25 26 26 24 24 25 27 27 26 27 28 26 26 26 25 25 26 26 26 28 29 30 30 31 32 34 35 37 38 38 39 39 40 42 43 44 46 47 49 50 51 52 53 54 55 56 57
22 22 23 23 22 22 21 21 21 23 24 25 26 26 27 27 26 26 26 26 26 26 25 25 25 25 24 25 26 27 27 27 27 27 28 28 28 30 29 28 27 26 26 28 28 29 31 32 32 34 35 35 36 38 39 40 41 42 43 44 45 46 48 49 50 52 53 54 55 56 57 58 58 59
23 23 23 23 23 23 23 23 24 25 26 27 28 28 29 29 28 28 28 27 27 27 26 26 26 26 27 27 26 27 28 29 28 27 28 30 30 31 32 31 29 27 27 30 31 33 34 35 36 37 38 38 39 40 42 44 45 46 47 48 49 50 51 52 53 55 56 57 58 58 59 60 60 59
23 22 22 23 24 24 24 25 26 26 26 27 28 29 29 29 29 29 29 28 28 27 27 27 27 28 29 29 29 29 29 29 30 31 31 32 32 33 34 34 34 32 32 32 33 35 37 38 39 40 41 42 43 44 45 47 49 50 51 52 53 53 53 54 56 57 58 58 59 59 59 59 59 59
21 21 20 20 23 26 27 27 27 26 27 27 28 29 29 29 29 29 29 29 28 28 29 29 29 30 31 31 31 32 32 31 33 34 35 34 34 35 36 37 38 38 37 38 38 38 40 41 42 42 44 45 46 46 47 47 49 51 52 53 54 55 55 57 57 58 58 58 58 58 58 58 58 58
19 19 18 17 21 25 26 27 28 29 29 29 29 29 29 29 29 29 29 29 29 30 31 31 32 33 34 33 34 35 34 33 35 36 36 36 37 38 39 39 41 41 41 42 43 44 45 46 47 47 47 48 48 49 49 49 51 52 53 55 57 57 58 58 58 58 58 59 59 59 58 57 58 57
20 20 19 20 22 22 22 23 27 30 30 31 32 32 31 31 30 30 29 29 30 31 32 33 33 34 35 35 35 35 34 35 37 38 38 38 40 40 39 40 42 43 43 44 45 47 49 51 51 51 52 52 51 52 53 53 55 57 58 59 60 60 59 59 59 60 61 60 60 59 58 58 57 56
23 23 22 24 25 25 24 23 25 27 29 31 33 33 33 33 33 33 32 32 33 34 35 35 35 36 36 37 36 36 36 37 38 39 39 40 41 41 40 41 43 44 45 45 45 46 49 52 54 54 55 54 53 53 54 55 56 59 60 61 62 62 62 62 62 63 62 61 61 59 58 57 55 55
25 25 25 26 27 28 29 28 28 30 31 32 33 33 34 34 34 34 34 34 34 36 37 37 37 37 38 38 39 39 40 40 40 40 41 42 43 42 43 44 44 44 43 42 42 44 47 50 53 55 55 55 53 52 53 56 59 61 62 64 65 66 66 67 66 65 63 62 60 58 57 57 57 58
26 26 27 29 29 30 30 31 32 34 35 34 34 35 36 36 36 36 35 35 36 38 39 39 39 40 40 40 41 42 43 43 43 44 45 45 45 45 45 44 44 44 43 42 42 45 48 50 54 57 56 54 53 54 58 63 66 67 67 68 69 69 69 68 67 65 62 60 59 57 57 58 58 59
27 28 29 31 31 29 30 32 34 37 38 38 38 38 38 38 38 38 38 38 38 40 41 41 41 42 42 42 43 44 44 45 46 47 48 47 47 46 46 44 44 45 45 44 46 49 50 51 54 56 55 55 58 64 68 70 71 70 70 70 70 69 68 66 63 61 60 58 58 58 59 59 59 60
28 28 30 31 32 32 34 36 38 39 39 40 40 41 40 39 39 40 40 40 41 42 44 45 44 45 45 45 46 46 47 48 49 50 51 49 48 47 48 47 47 49 49 49 50 52 53 54 57 59 62 65 70 73 73 71 70 70 69 68 66 65 64 61 60 59 59 59 59 60 60 60 60 61
30 30 32 34 35 36 38 39 40 40 40 40 41 42 41 41 41 42 43 43 44 44 45 46 47 48 48 48 49 50 51 51 51 51 51 51 49 49 51 52 54 57 57 57 58 59 60 62 64 67 69 71 73 73 73 71 69 66 64 61 61 61 61 58 58 58 59 60 60 60 60 61 61 62
32 32 34 36 38 39 40 41 42 42 42 42 43 43 43 44 45 46 47 47 47 46 46 47 48 50 51 52 52 53 53 53 52 52 53 53 53 54 56 58 60 61 60 60 61 62 64 66 68 70 71 71 72 71 70 68 66 63 60 59 58 59 59 57 58 60 60 61 61 61 61 61 61 61
33 34 35 37 39 41 43 44 45 45 45 46 47 48 49 50 51 51 51 50 49 50 50 52 53 53 54 55 56 56 55 55 54 55 56 58 59 60 62 62 62 61 60 61 63 65 68 69 70 70 69 67 66 65 65 64 63 63 62 61 61 61 59 59 60 61 61 61 61 61 60 60 59 59
38 39 40 40 41 43 44 46 47 48 48 49 50 51 53 53 54 54 53 52 52 53 54 55 56 56 56 57 58 58 58 58 59 59 61 62 64 65 65 65 65 65 65 67 69 70 70 69 67 65 64 63 62 62 62 62 61 62 63 63 64 64 62 61 61 60 60 61 61 60 59 59 58 57
41 42 42 41 42 43 44 46 48 49 50 51 53 54 55 56 56 57 57 57 58 58 59 60 61 62 62 63 64 65 66 66 65 66 67 68 69 69 69 69 69 68 68 68 67 66 64 62 61 60 59 60 60 59 59 59 59 61 63 65 64 64 62 61 60 60 60 60 60 59 58 56 56 55
41 42 43 43 43 44 45 47 48 50 51 53 55 57 58 59 60 60 61 61 62 63 63 64 66 67 67 67 67 67 67 67 67 67 67 67 67 67 67 67 66 65 64 64 64 63 60 58 58 57 57 57 57 56 57 59 60 63 64 63 61 61 60 59 58 57 57 57 56 55 54 53 52 51
42 42 43 45 46 48 49 51 52 53 55 56 58 59 60 60 61 62 63 63 64 65 66 67 67 68 68 69 68 68 68 68 67 67 66 65 64 64 63 63 63 61 60 61 62 63 61 59 58 56 55 54 54 55 58 60 61 61 60 58 56 55 54 51 50 49 48 48 48 48 48 48 47 47
43 44 45 47 48 50 52 54 56 57 58 60 61 61 62 63 64 64 65 66 67 67 68 69 69 69 70 70 70 70 70 69 69 68 67 67 67 67 68 69 69 68 67 66 65 65 65 65 64 63 62 60 58 57 58 58 58 57 55 54 53 50 49 48 48 46 43 43 43 44 45 45 45 45
46 47 48 49 50 52 53 55 56 57 59 61 62 63 64 64 65 66 67 67 68 69 69 70 71 71 71 71 72 72 71 71 71 70 70 69 69 70 71 72 73 74 74 74 74 73 73 72 72 71 69 67 65 63 61 60 59 58 57 56 54 53 55 56 54 50 47 47 48 48 48 48 47 47
49 50 51 53 54 55 56 57 58 60 61 62 63 64 65 66 67 68 68 68 68 69 69 70 70 71 71 71 71 72 72 72 72 71 71 70 70 69 70 70 71 72 73 73 74 74 74 74 73 71 68 66 64 63 63 62 63 64 64 64 63 63 62 59 55 51 51 51 51 50 50 49 48 46
52 53 54 56 57 58 59 60 62 62 63 63 64 65 66 66 67 67 67 67 67 66 66 66 66 66 67 67 67 67 68 68 68 68 68 68 68 69 70 70 70 70 70 69 68 68 66 66 65 64 62 61 60 60 60 60 61 62 63 63 61 58 54 51 49 49 50 49 49 49 48 46 44 42
55 57 57 58 59 61 62 63 63 63 63 63 64 64 64 64 63 63 63 63 62 62 62 62 62 63 63 63 63 63 63 64 63 64 63 64 65 66 67 67 67 66 66 65 64 63 61 60 59 58 57 57 56 56 55 55 54 54 52 50 46 44 43 44 45 46 47 47 46 44 42 39 38 38
58 59 59 60 61 61 62 62 62 62 61 61 61 61 61 61 61 61 60 59 59 59 59 60 60 60 60 60 60 59 59 59 59 59 59 59 59 59 59 60 60 59 59 58 58 57 56 55 54 53 51 49 47 46 44 43 42 40 40 39 40 41 43 44 44 45 44 42 40 37 36 35 36 37
59 59 59 59 59 59 60 60 60 59 59 59 59 59 59 59 59 59 58 58 57 57 56 56 57 57 57 57 56 56 57 57 56 56 55 55 54 53 53 52 52 52 51 50 49 47 45 44 42 41 38 36 35 35 36 36 36 37 38 39 41 42 43 43 43 41 38 36 35 34 35 35 36 37
57 57 57 57 57 57 58 58 57 57 57 57 57 57 57 56 56 56 55 54 54 53 53 53 54 55 55 55 55 56 56 56 56 56 55 53 52 50 49 47 46 45 43 40 37 35 34 34 33 33 32 32 34 37 40 42 43 43 42 40 39 40 40 40 39 37 37 36 36 35 35 35 36 37
55 55 55 55 55 55 55 55 54 54 54 54 53 52 52 51 51 51 50 50 50 51 52 52 53 54 55 55 56 57 57 57 56 55 53 50 47 43 41 39 38 37 35 32 32 34 34 35 35 36 37 39 40 40 41 41 40 40 38 36 36 37 37 37 37 38 37 36 34 34 34 36 37 38
52 52 52 52 52 52 51 50 50 49 48 47 47 47 47 47 47 48 48 48 49 50 52 53 54 54 55 55 55 54 53 52 51 49 46 43 39 37 35 34 33 33 33 34 36 37 37 37 38 38 38 37 36 35 33 32 32 32 32 33 34 36 37 37 38 37 36 33 32 33 35 37 38 39
49 48 48 47 47 46 45 44 43 43 43 43 43 43 44 45 46 46 46 47 48 50 52 52 52 51 49 48 46 44 43 42 40 37 35 34 32 32 32 33 33 34 35 37 38 38 36 35 35 34 33 32 31 31 30 30 30 30 31 31 33 34 35 35 34 33 31 31 32 34 36 37 38 38
43 43 42 41 40 40 39 39 39 40 40 41 41 42 42 43 44 45 45 47 48 48 48 46 43 41 37 34 31 30 29 27 25 23 23 24 26 27 29 30 32 33 34 35 36 36 35 35 34 33 32 32 31 31 30 30 30 30 30 31 32 32 32 30 28 27 27 28 31 33 35 36 36 35
38 37 36 36 36 36 36 37 37 38 38 39 40 40 41 41 42 43 44 44 44 42 39 36 33 30 26 22 20 19 18 18 18 17 18 20 21 22 22 23 24 26 26 27 28 30 30 31 31 31 31 31 31 30 30 29 29 30 30 30 29 27 25 24 24 25 27 29 31 32 33 33 32 30
32 32 33 33 34 35 35 36 37 38 38 38 39 39 40 40 40 41 41 39 36 33 31 29 28 24 19 17 16 15 15 16 16 17 18 20 20 20 19 20 21 22 23 25 26 27 27 27 27 28 28 29 29 28 28 28 28 27 26 24 22 21 21 22 25 27 29 31 31 31 30 28 26 25
30 31 32 33 34 35 36 37 38 38 39 39 39 38 38 39 39 38 36 33 30 27 27 27 25 22 19 18 18 18 18 17 16 16 18 21 22 23 24 25 26 26 26 25 25 24 23 23 23 24 25 26 26 26 26 25 24 22 21 20 20 21 22 24 26 29 30 31 31 29 25 23 23 23
Wind_Direction
271 272 271 270 270 269 268 267 266 266 267 269 271 274 277 279 283 286 285 281 279 278 278 275 272 273 275 274 273 273 272 272 275 276 278 282 287 292 297 303 307 309 311 312 314 317 316 313 307 298 291 288 285 285 285 286 286 286 286 288 291 292 293 293 294 296 298 299 302 304 306 308 309 310
270 271 271 271 271 270 269 268 268 268 268 268 271 275 276 278 282 285 284 280 279 278 278 277 275 273 273 272 270 268 268 271 273 276 281 286 290 294 297 303 307 309 310 311 312 312 311 308 304 297 292 289 289 288 286 284 283 282 284 286 288 290 293 296 298 301 303 305 306 307 308 309 310 310
272 272 273 272 272 272 271 269 268 268 267 268 270 272 274 278 281 283 282 280 279 278 276 277 277 275 271 269 268 267 267 270 273 278 283 286 290 293 297 302 306 306 306 306 306 305 302 301 299 296 293 290 289 288 285 283 282 283 285 288 291 294 297 300 302 304 306 307 309 310 312 313 314 315
269 270 272 272 272 271 270 269 267 266 266 268 269 272 275 279 280 279 280 280 280 279 277 275 274 274 273 272 269 268 269 271 275 279 282 285 289 291 294 298 299 300 299 299 299 297 296 296 295 292 289 287 286 286 286 286 286 288 291 293 296 298 300 302 304 306 308 310 312 313 314 315 315 315
265 267 270 272 273 273 272 270 269 269 270 270 272 274 277 279 279 279 281 281 279 278 278 277 275 274 274 273 271 270 271 273 276 279 282 284 287 288 290 293 294 294 293 293 293 293 292 291 289 287 285 285 286 286 287 288 290 291 293 295 297 299 301 303 305 307 308 309 310 310 310 310 310 309
264 266 270 272 274 274 274 272 272 273 274 274 274 275 276 277 276 277 279 279 279 279 279 278 277 275 273 273 273 274 275 276 276 277 278 280 282 284 286 288 289 288 288 289 289 288 287 286 285 285 285 285 286 287 288 289 290 292 293 295 296 298 300 302 303 304 304 305 305 305 306 306 305 305
264 266 268 270 271 272 273 275 277 278 277 276 275 274 274 275 275 276 277 276 277 280 280 279 278 276 275 275 276 277 277 276 275 275 275 276 278 281 283 285 285 285 287 287 287 286 286 285 285 285 285 286 286 288 288 289 290 291 293 294 295 296 297 298 299 299 299 300 300 301 301 301 301 301
264 266 267 268 268 270 273 277 279 280 279 277 275 274 273 273 274 276 277 277 278 279 278 277 276 276 276 277 277 278 278 276 275 275 275 275 277 280 282 283 283 285 286 286 285 285 285 285 285 284 284 284 285 286 287 288 289 290 291 291 292 292 293 294 295 295 295 296 296 296 296 297 299 300
264 268 270 272 273 274 275 276 277 279 279 278 276 276 274 273 273 273 274 275 277 278 277 276 275 276 277 278 278 279 279 278 277 277 278 278 279 281 284 283 282 283 284 283 283 283 283 284 283 282 281 281 282 284 285 286 287 287 287 288 288 289 290 291 291 292 292 292 292 293 295 297 299 300
267 272 276 278 279 279 279 278 279 280 281 280 278 277 276 274 274 274 273 273 274 276 278 278 278 280 281 280 280 280 281 281 280 280 281 281 282 283 282 282 282 283 283 282 281 280 281 281 280 279 279 280 282 283 284 284 284 284 285 285 286 287 288 289 289 290 290 291 291 293 295 297 298 299
273 277 279 280 281 280 280 280 281 281 281 280 279 277 276 275 276 276 275 275 274 274 276 278 280 282 283 283 283 281 280 281 282 281 280 281 282 282 279 278 280 281 282 282 281 280 280 279 279 279 280 281 282 282 283 284 283 283 284 284 284 286 287 288 289 290 291 292 293 295 296 297 298 300
277 279 280 280 279 277 277 278 280 281 282 282 280 278 277 276 276 276 276 276 276 275 276 278 280 281 282 283 283 282 281 281 281 281 280 279 279 280 277 275 276 278 278 277 278 279 279 279 279 279 280 281 281 282 283 283 283 283 284 285 286 287 288 289 290 291 293 294 295 296 296 297 298 300
279 280 281 279 276 273 273 275 277 280 282 283 283 282 281 278 276 275 275 275 276 277 278 279 280 281 281 280 280 283 286 285 282 281 281 280 279 279 277 276 276 279 279 276 276 277 276 277 278 278 279 281 282 283 284 283 283 284 285 286 287 288 289 290 291 292 294 295 296 297 297 298 299 299
280 281 281 278 274 271 271 272 276 279 280 281 282 283 281 280 277 275 274 274 274 276 277 278 279 281 280 280 280 283 286 286 283 281 282 283 282 280 279 278 278 279 280 279 278 277 276 275 277 278 280 282 283 285 285 285 284 284 285 286 287 288 289 290 292 293 295 296 297 297 298 298 299 299
282 284 284 282 278 274 272 275 278 279 280 281 281 281 279 278 276 275 274 274 275 276 276 277 278 279 280 280 280 280 281 280 278 280 282 283 282 280 279 279 278 277 278 278 279 281 280 279 279 280 281 283 284 285 286 286 285 285 286 287 287 289 290 291 292 293 294 295 296 296 296 297 298 299
281 282 283 285 285 281 278 278 279 280 281 282 280 279 278 276 274 273 273 274 275 275 276 276 277 277 278 278 277 277 277 275 274 278 282 282 281 280 280 279 278 276 276 278 281 283 284 285 286 284 283 284 285 287 287 287 287 287 287 287 288 289 290 291 292 293 294 294 294 295 295 297 298 300
271 273 273 275 283 287 285 282 281 281 283 284 282 281 279 277 276 275 276 277 277 276 276 277 278 278 279 279 278 278 277 274 274 278 280 281 282 283 283 282 280 278 279 282 284 285 285 285 286 285 283 284 286 287 288 289 290 289 289 289 289 289 290 291 292 293 294 294 294 295 296 297 299 301
264 266 265 263 268 275 278 282 285 286 285 283 281 280 280 280 279 279 281 281 280 280 280 281 281 281 280 279 277 277 276 275 277 279 281 282 283 283 283 283 282 282 284 287 289 290 288 286 285 284 284 285 286 286 287 289 290 289 289 289 289 289 289 290 292 293 294 294 295 295 296 297 299 301
261 263 264 264 264 263 264 270 277 281 282 281 280 281 282 282 282 282 283 282 281 282 283 284 284 283 283 282 280 279 278 278 280 281 281 282 282 283 282 281 282 285 288 290 291 291 289 287 286 286 285 285 285 286 286 287 288 289 289 289 289 290 290 291 292 293 293 293 294 294 294 296 298 301
261 264 266 267 267 265 266 267 267 270 275 278 279 280 281 281 283 284 285 283 282 282 283 283 283 283 283 283 283 282 282 281 281 281 280 281 282 282 281 282 286 288 287 287 286 286 285 285 285 285 286 286 286 285 286 287 289 290 290 290 291 291 291 292 292 293 292 292 292 293 294 296 298 301
260 263 264 265 265 265 266 267 267 269 272 274 275 277 279 280 282 283 283 283 282 281 281 281 281 280 280 281 281 281 281 281 281 280 281 282 282 282 282 285 287 285 282 282 282 281 283 284 282 281 284 286 286 286 288 290 291 291 290 290 290 291 291 291 291 291 291 291 291 293 294 296 297 299
257 259 261 263 263 262 261 264 267 270 272 272 272 275 277 278 278 279 279 279 280 280 280 280 280 279 278 279 279 280 279 279 280 280 280 282 283 284 284 283 281 279 280 282 281 281 282 282 279 277 279 281 283 285 288 289 288 288 288 288 289 289 289 289 289 290 290 290 291 291 292 293 294 296
259 261 263 264 264 264 264 266 268 271 271 270 270 273 275 275 276 277 278 278 278 277 277 277 277 276 276 276 276 276 277 277 278 279 280 280 280 279 278 275 274 274 276 277 277 277 278 277 276 276 278 280 282 284 285 284 284 285 285 286 287 288 288 288 288 289 289 289 289 289 290 291 291 293
267 268 269 269 269 270 271 271 271 271 271 270 270 272 274 274 274 275 277 278 278 277 277 276 276 275 276 275 274 274 274 274 275 277 279 278 277 275 273 273 273 273 272 272 273 274 276 277 279 281 282 282 282 282 282 283 283 283 283 285 286 286 286 287 288 289 289 288 288 288 289 289 290 292
270 271 271 271 272 273 272 272 272 272 272 271 272 272 272 273 273 274 276 277 278 277 277 278 278 278 279 278 277 275 273 274 275 275 275 274 274 273 273 274 276 277 276 275 274 276 277 279 282 284 283 282 281 282 283 284 284 283 283 285 285 284 283 285 286 287 286 286 287 288 288 289 290 291
270 270 272 273 275 275 274 274 273 273 273 273 273 274 274 274 275 275 276 276 276 276 277 278 278 279 280 281 280 278 276 276 276 275 273 274 274 274 275 276 277 277 277 277 278 280 281 282 283 283 282 281 281 281 281 283 284 286 287 288 287 284 282 282 284 284 284 285 286 288 288 288 289 289
270 271 272 273 274 275 275 275 274 275 275 276 276 276 276 276 276 276 276 275 274 274 274 275 276 276 276 277 276 276 275 276 276 276 276 277 277 277 278 278 278 279 279 280 282 283 282 281 280 279 278 278 278 278 280 282 285 287 288 287 285 283 280 280 283 284 285 286 289 289 289 288 288 288
271 271 271 271 272 272 272 272 273 274 275 276 276 276 276 276 275 275 275 275 275 274 274 274 275 275 275 276 276 277 277 278 278 277 277 277 277 278 280 280 280 281 281 281 280 278 276 275 275 275 276 277 279 280 283 284 284 284 284 284 284 282 281 282 285 286 286 288 290 289 288 287 287 288
275 275 274 273 273 273 273 273 273 273 274 275 276 276 276 276 276 276 277 277 277 277 276 276 277 277 278 278 279 280 280 280 280 279 279 278 279 279 280 280 280 280 278 276 273 271 270 271 273 275 277 279 281 281 281 281 281 282 283 284 284 284 285 286 287 287 287 288 288 287 287 288 288 289
277 276 275 273 273 272 273 273 273 274 274 275 276 277 277 277 278 278 278 278 278 279 278 278 278 278 279 279 279 280 280 279 279 279 279 279 279 279 279 279 278 276 275 272 269 268 269 271 273 275 277 279 281 281 280 280 280 281 282 283 283 285 287 289 289 289 289 289 289 289 290 290 290 289
277 276 276 275 274 274 274 274 275 275 276 277 278 279 279 279 279 280 280 280 280 280 280 280 280 280 280 280 280 280 280 280 279 278 277 277 276 276 276 276 276 276 275 273 272 271 271 272 274 276 278 280 282 283 282 280 279 279 280 281 282 285 288 291 292 291 291 291 292 292 293 292 291 290
281 281 280 280 280 279 278 278 278 278 278 279 279 280 280 280 280 280 280 280 280 280 280 280 280 279 279 280 280 280 280 281 281 280 280 279 278 277 276 276 276 275 275 275 276 275 275 276 277 279 281 282 282 282 281 279 279 279 280 281 282 283 286 289 291 289 289 289 291 292 291 290 287 286
285 284 284 284 284 283 282 282 281 281 281 281 281 281 280 281 281 281 281 281 280 280 280 280 279 279 279 279 279 280 280 280 281 281 281 281 281 280 279 278 277 277 277 277 278 278 279 279 280 281 283 283 282 280 279 278 278 278 278 279 280 282 285 287 287 287 288 289 290 289 286 282 280 280
286 286 286 286 285 285 284 284 285 285 284 284 283 282 282 282 282 282 282 282 283 283 283 282 282 282 281 281 281 281 281 281 281 281 281 281 281 280 280 280 280 280 281 281 281 281 281 281 281 281 282 282 281 280 279 278 278 278 278 279 280 281 283 285 286 287 287 286 284 281 278 276 276 276
287 287 287 287 287 286 286 286 286 286 286 285 285 284 285 285 284 285 285 285 285 285 284 284 283 283 283 283 283 282 282 282 282 282 281 281 281 280 280 280 281 281 282 283 283 284 284 284 283 282 281 280 279 278 279 279 278 278 278 278 279 281 284 286 287 284 281 278 276 274 273 274 277 280
288 288 288 288 287 287 287 287 287 287 287 287 287 287 287 287 286 286 286 286 286 286 286 285 284 284 284 284 284 284 283 283 282 282 281 281 281 281 281 282 283 283 284 284 284 284 284 284 283 283 283 283 281 280 279 278 277 275 273 274 278 284 287 286 282 277 273 272 272 274 276 280 284 287
287 287 287 287 287 287 287 288 288 288 288 288 288 288 288 288 288 288 287 287 288 287 287 287 286 286 286 286 285 285 284 283 283 282 281 281 281 282 283 284 285 285 285 285 285 284 284 285 286 287 285 283 279 276 274 273 272 273 275 280 284 285 282 276 273 272 274 277 280 283 285 286 288 291
288 288 288 288 288 288 289 289 289 289 289 289 289 290 290 290 290 290 291 291 291 290 289 288 288 288 288 287 286 285 284 283 282 281 281 282 282 283 283 283 283 282 283 284 284 280 278 280 282 280 275 272 272 273 275 276 277 279 282 285 284 280 274 272 274 279 284 287 288 288 288 289 290 291
288 289 289 289 289 289 290 290 290 290 291 291 291 292 292 292 293 294 294 294 293 292 291 290 290 290 289 287 286 284 283 282 281 281 281 282 282 282 281 280 281 282 282 279 273 268 268 272 274 273 272 274 276 279 281 282 282 282 283 282 280 279 280 282 285 287 288 288 287 287 287 289 290 290
289 289 289 290 290 290 291 291 292 293 293 294 294 295 295 295 295 296 296 296 295 294 294 293 292 291 289 287 286 284 282 281 281 281 281 280 278 276 274 274 277 279 277 273 270 269 271 274 275 274 275 276 278 281 284 284 284 284 283 281 280 281 283 285 287 288 289 289 287 286 286 288 289 291
290 290 291 291 292 293 294 295 296 296 297 297 298 298 298 298 298 298 299 299 298 297 296 295 294 293 292 290 287 284 282 281 281 281 280 278 275 271 268 269 271 272 271 271 273 275 276 276 276 275 275 275 277 280 281 280 279 279 279 279 279 280 282 284 286 287 287 286 285 285 287 289 291 293
291 292 293 294 295 296 297 298 298 299 299 299 299 300 300 301 301 302 302 301 300 299 299 300 299 298 296 294 292 289 286 284 283 282 281 279 277 274 272 273 275 275 275 274 274 274 274 272 271 270 270 272 274 274 273 272 273 274 275 276 278 281 284 286 287 286 286 287 288 289 290 292 292 292
294 295 296 297 298 298 299 299 299 300 300 301 301 302 303 303 304 304 303 303 302 304 306 305 302 299 298 299 300 298 294 289 286 284 281 278 275 272 272 273 274 275 274 273 272 271 270 267 264 263 265 267 269 269 269 270 272 274 276 278 280 283 285 287 289 290 291 292 292 292 292 292 291 291
297 297 298 299 299 300 300 300 301 301 302 303 303 304 304 305 305 305 305 306 307 309 310 306 297 291 291 292 290 288 286 283 278 274 272 273 273 272 273 274 275 274 275 276 277 278 275 270 266 263 263 264 265 267 269 271 273 275 277 278 279 280 283 288 293 295 295 294 294 293 292 290 290 295
299 300 301 301 301 302 302 302 302 303 304 304 304 304 304 305 306 306 307 308 309 311 314 311 300 288 281 280 278 275 273 271 268 267 269 272 273 274 275 277 279 279 280 281 282 281 279 274 270 267 265 265 266 267 269 271 272 272 271 271 273 276 280 286 293 298 298 296 295 293 291 291 297 302